Regional Weather Roundup
Issued by NWS Spokane, WA

Home | Current Version | Previous Version | Text Only | Print | Product List | Glossary On
Versions: 1 2 3 4 5 6 7 8 9 10 11 12 13 14 15 16 17 18 19 20 21 22 23 24 25 26 27 28 29 30 31 32 33 34 35 36 37 38 39 40 41 42 43 44 45 46 47 48 49 50
000
NZUS01 KOTX 212200
RWROTX

Eastern Washington/Northern Idaho Roundup
National Weather Service, Spokane WA
200 PM PST SAT JAN 21 2017

Note: "fair" indicated few or no clouds below 12,000 feet with no
significant weather and/or obstructions to visibility.

...Northeast Washington and Northern Idaho Panhandle...

CITY           SKY/WX    TMP DP  RH WIND       PRES   REMARKS
Spokane Intl   PTSUNNY   38  32  79 NE5       29.52R
Spokane Downto CLOUDY    39  33  79 SE7       29.54R
Coeur d Alene  CLOUDY    37  33  85 NE12      29.54R
Deer Park      CLOUDY    39  31  72 NE5       29.53R
Sandpoint      CLOUDY    32  32 100 NE5       29.56R WCI  27

...Southeast Washington and southern Idaho Panhandle...

CITY           SKY/WX    TMP DP  RH WIND       PRES   REMARKS
Walla Walla    MOSUNNY   44  34  67 CALM      29.50R
Pullman/Moscow MOSUNNY   38  31  76 SE7       29.52R
Lowell           N/A     37  32  82 N5        29.59R

...Columbia Basin...

CITY           SKY/WX    TMP DP  RH WIND       PRES   REMARKS
Ephrata        CLOUDY    37  30  75 E3        29.51R
Moses Lake     CLOUDY    37  33  85 NW3       29.52R
Pasco          PTSUNNY   36  32  85 W3        29.55R FOG
Hermiston      CLOUDY    36  33  89 W5        29.52R FOG
Pendleton      PTSUNNY   43  37  79 CALM      29.48R

...East Slopes Cascades...

CITY           SKY/WX    TMP DP  RH WIND       PRES   REMARKS
The Dalles     CLOUDY    36  33  89 E6        29.52R
Yakima         CLOUDY    41  35  79 CALM      29.51R
Ellensburg     CLOUDY    38  33  82 CALM      29.48R HAZE
Wenatchee      CLOUDY    37  34  89 E6        29.51R
Omak           CLOUDY    36  32  85 CALM      29.53R FOG
Sunnyside      CLOUDY    32  30  92 CALM      29.53R FOG

...Southern British Columbia...

CITY           SKY/WX    TMP DP  RH WIND       PRES   REMARKS

...Western Montana...

CITY           SKY/WX    TMP DP  RH WIND       PRES   REMARKS
Kalispell      CLOUDY    29  23  78 CALM      29.56R
Missoula       LGT SNOW  26  24  92 CALM      29.59R FOG

...Neighboring Cities...

CITY           SKY/WX    TMP DP  RH WIND       PRES   REMARKS
Seattle        PTSUNNY   51  39  63 NW6       29.40S
Portland       LGT RAIN  41  40  96 SE14      29.44R FOG
Boise          CLOUDY    39  33  79 SE8       29.64R
Great Falls    SUNNY     35  22  58 W8        29.48R WCI  29



USA.gov is the U.S. government's official web portal to all federal, state and local government web resources and services.